Regional Weather Roundup
Issued by NWS

Home | Current Version | Previous Version | Graphics & Text | Print | Product List | Glossary Off
Versions: 1 2 3 4 5 6 7 8 9 10 11 12 13 14 15 16 17 18 19 20 21 22 23 24 25 26 27 28 29 30 31 32 33 34 35 36 37 38 39 40 41 42 43 44 45 46 47 48 49 50

000
ASUS43 KMPX 242101
RWRMN
WEATHER ROUNDUP FOR MINNESOTA
NATIONAL WEATHER SERVICE TWIN CITIES/CHANHASSEN MN
300 PM CST SAT JAN 24 2015


NOTE: "FAIR" INDICATES FEW OR NO CLOUDS BELOW 12,000 FEET WITH NO
SIGNIFICANT WEATHER AND/OR OBSTRUCTIONS TO VISIBILITY. N/A MEANS
CURRENT SKY AND/OR WEATHER CONDITIONS ARE NOT AVAILABLE.

MNZ060>063-068>070-242200-
   Twin Cities Metro

CITY           SKY/WX    TMP DP  RH WIND       PRES   REMARKS
TWIN CITIES    CLOUDY    41  31  67 S3        29.58F
ST PAUL        PTSUNNY   41  32  70 E3        29.59F
CRYSTAL        CLOUDY    44  31  60 CALM      29.57F
LAKEVILLE      PTSUNNY   37  32  81 CALM      29.58S
EDEN PRAIRIE   CLOUDY    40  31  70 SW3       29.57F
SOUTH ST PAUL  CLOUDY    42  32  67 CALM      29.58S
LAKE ELMO      FAIR      41  32  70 CALM      29.59F
$$
MNZ001>005-007-008-013>017-022>024-027-028-242200-
   Northwest Minnesota

CITY           SKY/WX    TMP DP  RH WIND       PRES   REMARKS
BEMIDJI        CLOUDY    33  29  85 N9        29.58F WCI  25
HALLOCK        CLOUDY    34  27  75 N7        29.66R WCI  28
ROSEAU         MOSUNNY   27  18  69 E14       29.67R WCI  15
WARROAD        MOSUNNY   21  14  73 NE13      29.69R WCI   9
THIEF RVR FALL CLOUDY    34  27  75 NE10      29.62S WCI  26
CROOKSTON      CLOUDY    34  30  86 E5        29.64R WCI  30
FOSSTON        CLOUDY    30  30 100 NE7       29.61R WCI  23
DETROIT LAKES  CLOUDY    34  32  93 CALM      29.57S
MOORHEAD       CLOUDY    34  34 100 N5        29.59S WCI  30
PARK RAPIDS    CLOUDY    33  30  88 NE6       29.56F WCI  28
MAHNOMEN       CLOUDY    32  31  95 N5        29.58S FOG     WCI  27
$$
MNZ006-009>011-018-025>026-242200-
   North Central Minnesota

CITY           SKY/WX    TMP DP  RH WIND       PRES   REMARKS
BAUDETTE       MOSUNNY   28  15  58 NE9       29.66R WCI  19
FLAG ISLAND    SUNNY     18   9  68 N13       29.70F WCI   4
INTL FALLS     SUNNY     23   9  55 N12       29.66S WCI  12
WASKISH        CLOUDY    32  25  74 NE3       29.63R
BIG FORK       CLOUDY    34  25  69 N7        29.61S WCI  28
LONGVILLE      CLOUDY    36  30  80 N3        29.57F
GRAND RAPIDS   CLOUDY    36  28  75 NE3       29.59R
CRANE LAKE     SUNNY     27  10  50 N7        29.67S WCI  19
ORR            CLOUDY    28  16  59 CALM      29.61S
COOK           CLOUDY    28  21  74 N8        29.62S WCI  20
WALKER         CLOUDY    33  29  86 CALM      29.58F
$$
MNZ012-019>021-037-242200-
   Northeast Minnesota

CITY           SKY/WX    TMP DP  RH WIND       PRES   REMARKS
DULUTH         CLOUDY    36  28  73 N6        29.57F
ELY            CLOUDY    28  19  69 NE8       29.62R WCI  20
HIBBING        CLOUDY    35  27  72 NE8       29.59R WCI  29
EVELETH        CLOUDY    34  28  80 NE6       29.60S WCI  29
DULUTH HARBOR  CLOUDY    37  30  75 CALM      29.61S
TWO HARBORS    CLOUDY    37  32  81 E8        29.58S
SILVER BAY     LGT SNOW  30  27  86 NE12      29.61R WCI  21
GRAND MARAIS     N/A     29  16  58 N6G21     29.66R WCI  23
G MARAIS ARPRT SUNNY     19  10  68 NW9G16    29.60R WCI   9
$$
MNZ029>031-032-039>041-046>048-054>057-064-242200-
   West Central Minnesota

CITY           SKY/WX    TMP DP  RH WIND       PRES   REMARKS
FERGUS FALLS   CLOUDY    32  32 100 N5        29.59F WCI  27
WHEATON        CLOUDY    34  28  80 NW6       29.59F WCI  29
MORRIS         CLOUDY    36  30  80 NW9       29.57R
ALEXANDRIA     CLOUDY    35  29  78 N5        29.56S WCI  31
ELBOW LAKE     PTSUNNY   32  31  94 NW6       29.56F WCI  26
WADENA         CLOUDY    30  30 100 CALM      29.56F FOG
GLENWOOD       CLOUDY    36  30  80 NW3       29.56S
APPLETON       CLOUDY    37  34  87 NW5       29.58S
BENSON         CLOUDY    37  30  75 NW6       29.58S
ORTONVILLE     CLOUDY    37  30  75 NW5       29.57F
MADISON        CLOUDY    43  36  75 NW6       29.58S
WILLMAR        FAIR      37  34  87 W7        29.58F
$$
MNZ033>034-036-042>043-049>051-058-059-242200-
   Central Minnesota

CITY           SKY/WX    TMP DP  RH WIND       PRES   REMARKS
ST CLOUD       CLOUDY    40  31  70 NE3       29.56S
SAUK CENTRE    FAIR      36  32  85 CALM      29.56S
PAYNESVILLE    CLOUDY    35  32  87 CALM      29.57S
AITKIN         PTSUNNY   39  32  75 N3        29.56S
PINE RIVER     CLOUDY    34  30  86 CALM      29.61F
BRAINERD       CLOUDY    35  30  82 N6        29.57F WCI  30
STAPLES        CLOUDY    30  30 100 N3        29.56F
LONG PRAIRIE   FAIR      36  32  87 N3        29.56S
LITTLE FALLS   CLOUDY    37  30  75 CALM      29.56F
LITCHFIELD     CLOUDY    39  36  87 SW3       29.57F
BUFFALO        CLOUDY    38  32  77 CALM      29.59S
MAPLE LAKE     CLOUDY    39  34  80 CALM      29.58S
$$
MNZ037-044-045-052-053-242200-
   East Central Minnesota

CITY           SKY/WX    TMP DP  RH WIND       PRES   REMARKS
PRINCETON      CLOUDY    41  32  70 CALM      29.58S
MORA           CLOUDY    37  30  75 CALM      29.59S
CAMBRIDGE      CLOUDY    43  30  61 CALM      29.56S
RUSH CITY      CLOUDY    38  31  74 CALM      29.58F
MOOSE LAKE     CLOUDY    37  30  75 CALM      29.57R
HINCKLEY       CLOUDY    39  32  75 CALM      29.58S
CLOQUET        CLOUDY    36  27  69 CALM      29.58R
MCGREGOR       CLOUDY    36  32  87 N5        29.58S
$$
MNZ071>073-080-081-089-090-097-098-242200-
   Southwest Minnesota

CITY           SKY/WX    TMP DP  RH WIND       PRES   REMARKS
MONTEVIDEO     CLOUDY    37  32  81 NW5       29.59F
GRANITE FALLS  CLOUDY    37  33  86 W5        29.59F
CANBY          CLOUDY    40  33  75 W12       29.59S
MARSHALL       CLOUDY    39  30  70 W10       29.60F
REDWOOD FALLS  CLOUDY    38  33  82 W9        29.58F
OLIVIA         CLOUDY    36  32  87 W7        29.57F
PIPESTONE      CLOUDY    37  34  87 W8        29.58F
WINDOM         CLOUDY    37  34  87 SW13      29.59S
WORTHINGTON    CLOUDY    37  30  75 W12       29.61S
JACKSON        CLOUDY    37  32  81 W7        29.60S
TRACY          CLOUDY    40  34  79 W9        29.58F
SLAYTON        CLOUDY    37  32  82 CALM      29.60S
$$
MNZ065>067-074>077-082>085-091>093-242200-
   South Central Minnesota

CITY           SKY/WX    TMP DP  RH WIND       PRES   REMARKS
MANKATO        CLOUDY    41  34  75 W8        29.58F
NEW ULM        CLOUDY    39  36  87 W5        29.59R
ST JAMES       CLOUDY    41  36  81 SW9       29.60S
FAIRMONT       CLOUDY    39  32  75 W8        29.60S
GLENCOE        CLOUDY    37  34  87 SW5       29.57F
FARIBAULT      CLOUDY    39  34  81 S6        29.58F
OWATONNA       PTSUNNY   37  34  87 CALM      29.58F
WASECA         CLOUDY    39  34  81 SW5       29.59F
ALBERT LEA     PTSUNNY   39  36  87 SW6       29.58F
$$
MNZ078>079-086>088-094>096-242200-
   Southeast Minnesota

CITY           SKY/WX    TMP DP  RH WIND       PRES   REMARKS
ROCHESTER      MOSUNNY   35  31  85 SW5       29.59F WCI  31
RED WING       PTSUNNY   43  30  61 CALM      29.59F
STANTON        PTSUNNY   40  32  75 CALM      29.57F
DODGE CENTER   PTSUNNY   36  34  93 S3        29.57F
WINONA         SUNNY     41  32  70 W5        29.62S
AUSTIN         MOSUNNY   39  34  81 CALM      29.59F
PRESTON        MOSUNNY   36  31  83 W5        29.61F
$$
ABBREVIATIONS USED IN REMARKS
   TC - TEMPERATURES IN CELSIUS
  WCI - WIND CHILL INDEX
   HX - HEAT INDEX
  VSB - VISIBILITY
$$


USA.gov is the U.S. government's official web portal to all federal, state and local government web resources and services.